Weather History for Cumberland, WI

Change the Weather History Date:

Monday, August 12, 2013

  Actual Average (KRPD) Record (KRPD)
Temperature  
Mean Temperature 63 °F -  
Max Temperature 73 °F 75 °F 87 °F (2003)
Min Temperature 51 °F 54 °F 35 °F (2001)
Degree Days  
Heating Degree Days 2    
Growing Degree Days 13 (Base 50)    
Moisture  
Dew Point 55 °F    
Average Humidity 75    
Maximum Humidity 100    
Minimum Humidity 43    
Precipitation  
Precipitation 0.12 in - - ()
Sea Level Pressure  
Sea Level Pressure 30.03 in    
Wind  
Wind Speed 5 mph (NNW)    
Max Wind Speed 25 mph    
Max Gust Speed 32 mph    
Visibility 9 miles    
Events Fog , Rain    
Averages and records for this station are not official NWS values.
T = Trace of Precipitation, MM = Missing Value Source: NWS Daily Summary

Daily Weather History Graph

Daily Weather History Graph

Search for Another Location

Airport:

Trip Planner

Search our weather history database for the weather conditions in past years. The results will help you decide how hot, cold, wet, or windy it might be!

Date:

Astronomy

Aug. 12, 2013 Rise Set
Actual Time 6:05 AM CDT 8:19 PM CDT
Civil Twilight 5:32 AM CDT 8:52 PM CDT
Nautical Twilight 4:52 AM CDT 9:32 PM CDT
Astronomical Twilight 4:06 AM CDT 10:17 PM CDT
Moon 12:17 PM CDT (8/12) 10:51 PM CDT (8/12)
Length of Visible Light 15h 19m
Length of Day
14h 14m
Waxing Crescent, 31% of the Moon is Illuminated
Aug 12
Waxing Crescent
Aug 14
First Quarter
Aug 20
Full
Aug 28
Last Quarter
Sep 5
New

Hourly Weather History & Observations

Time (CDT) Temp. Dew Point Humidity Pressure Visibility Wind Dir Wind Speed Gust Speed Precip Events Conditions
2:15 AM 60.8 °F 59.0 °F 94% 30.04 in 10.0 mi NW 4.6 mph - 0.02 in Rain Rain
2:35 AM 60.8 °F 59.0 °F 94% 30.03 in 7.0 mi Calm Calm - 0.09 in Rain Light Rain
2:55 AM 59.0 °F 59.0 °F 100% 30.02 in 10.0 mi NE 4.6 mph - 0.09 in   Mostly Cloudy
3:15 AM 60.8 °F 59.0 °F 94% 30.01 in 10.0 mi Calm Calm - N/A   Overcast
3:35 AM 59.0 °F 59.0 °F 100% 30.02 in 7.0 mi SSW 8.1 mph - N/A Rain Rain
3:55 AM 59.0 °F 59.0 °F 100% 30.02 in 7.0 mi Calm Calm - 0.02 in Rain Light Rain
4:15 AM 59.0 °F 59.0 °F 100% 30.01 in 7.0 mi Calm Calm - N/A   Overcast
4:35 AM 59.0 °F 59.0 °F 100% 30.01 in 7.0 mi Calm Calm - N/A   Overcast
4:55 AM 59.0 °F 59.0 °F 100% 30.01 in 7.0 mi Calm Calm - N/A   Overcast
5:15 AM 59.0 °F 57.2 °F 94% 30.01 in 2.5 mi Calm Calm - N/A   Overcast
5:35 AM 55.4 °F 55.4 °F 100% 30.01 in 0.2 mi Calm Calm - 0.01 in Fog Fog
5:55 AM 55.4 °F 55.4 °F 100% 30.01 in 0.2 mi Calm Calm - 0.01 in Fog Fog
6:15 AM 55.4 °F 53.6 °F 94% 30.01 in 0.2 mi Calm Calm - N/A Fog Fog
6:35 AM 55.4 °F 55.4 °F 100% 30.02 in 0.2 mi Calm Calm - N/A Fog Fog
6:55 AM 55.4 °F 55.4 °F 100% 30.01 in 0.2 mi Calm Calm - N/A Fog Fog
7:15 AM 57.2 °F 57.2 °F 100% 30.02 in 3.0 mi Calm Calm - N/A   Scattered Clouds
7:35 AM 59.0 °F 59.0 °F 100% 30.02 in 10.0 mi NNW 5.8 mph - N/A   Clear
7:55 AM 60.8 °F 60.8 °F 100% 30.02 in 10.0 mi NNW 6.9 mph - N/A   Clear
8:15 AM 60.8 °F 60.8 °F 100% 30.01 in 10.0 mi NNW 6.9 mph - N/A   Clear
8:35 AM 64.4 °F 60.8 °F 88% 30.02 in 10.0 mi NNW 6.9 mph - N/A   Clear
8:55 AM 64.4 °F 59.0 °F 83% 30.02 in 10.0 mi NNW 8.1 mph - N/A   Clear
9:15 AM 66.2 °F 59.0 °F 78% 30.02 in 10.0 mi NNW 10.4 mph - N/A   Clear
9:35 AM 66.2 °F 59.0 °F 78% 30.02 in 10.0 mi NNW 10.4 mph - N/A   Clear
9:55 AM 68.0 °F 59.0 °F 73% 30.02 in 10.0 mi NNW 10.4 mph - N/A   Clear
10:15 AM 68.0 °F 57.2 °F 68% 30.02 in 10.0 mi North 10.4 mph - N/A   Clear
10:35 AM 68.0 °F 55.4 °F 64% 30.02 in 10.0 mi NNW 9.2 mph - N/A   Clear
10:55 AM 68.0 °F 55.4 °F 64% 30.02 in 10.0 mi NNW 11.5 mph - N/A   Scattered Clouds
11:15 AM 69.8 °F 55.4 °F 60% 30.03 in 10.0 mi NNW 9.2 mph - N/A   Mostly Cloudy
11:35 AM 69.8 °F 55.4 °F 60% 30.03 in 10.0 mi NW 10.4 mph - N/A   Mostly Cloudy
11:55 AM 69.8 °F 55.4 °F 60% 30.03 in 10.0 mi NNW 10.4 mph - N/A   Mostly Cloudy
12:15 PM 71.6 °F 55.4 °F 57% 30.03 in 10.0 mi NW 11.5 mph 17.3 mph N/A   Scattered Clouds
12:35 PM 69.8 °F 53.6 °F 56% 30.03 in 10.0 mi NW 11.5 mph 18.4 mph N/A   Mostly Cloudy
12:55 PM 71.6 °F 55.4 °F 57% 30.03 in 10.0 mi NW 9.2 mph - N/A   Scattered Clouds
1:15 PM 71.6 °F 53.6 °F 53% 30.03 in 10.0 mi NW 12.7 mph - N/A   Scattered Clouds
1:35 PM 71.6 °F 51.8 °F 50% 30.02 in 10.0 mi NNW 11.5 mph - N/A   Scattered Clouds
1:55 PM 73.4 °F 53.6 °F 50% 30.02 in 10.0 mi NNW 12.7 mph 17.3 mph N/A   Scattered Clouds
2:15 PM 73.4 °F 51.8 °F 47% 30.02 in 10.0 mi NW 11.5 mph - N/A   Scattered Clouds
2:35 PM 73.4 °F 51.8 °F 47% 30.01 in 10.0 mi NW 10.4 mph 18.4 mph N/A   Scattered Clouds
2:55 PM 73.4 °F 50.0 °F 44% 30.01 in 10.0 mi NW 9.2 mph - N/A   Scattered Clouds
3:15 PM 73.4 °F 50.0 °F 44% 30.00 in 10.0 mi NW 9.2 mph - N/A   Scattered Clouds
3:35 PM 73.4 °F 51.8 °F 47% 30.00 in 10.0 mi NW 8.1 mph - N/A   Scattered Clouds
3:55 PM 73.4 °F 50.0 °F 44% 30.00 in 10.0 mi WNW 9.2 mph - N/A   Scattered Clouds
4:15 PM 71.6 °F 51.8 °F 50% 30.00 in 10.0 mi NNW 11.5 mph - N/A   Mostly Cloudy
4:35 PM 69.8 °F 46.4 °F 43% 30.02 in 10.0 mi NNW 25.3 mph 32.2 mph N/A   Overcast
4:55 PM 68.0 °F 50.0 °F 52% 30.02 in 10.0 mi North 12.7 mph 23.0 mph N/A   Overcast
5:15 PM 68.0 °F 53.6 °F 60% 30.02 in 10.0 mi WNW 8.1 mph - N/A   Mostly Cloudy
5:35 PM 69.8 °F 53.6 °F 56% 30.02 in 10.0 mi NNW 6.9 mph - N/A   Mostly Cloudy
5:55 PM 68.0 °F 53.6 °F 60% 30.02 in 10.0 mi NW 8.1 mph - N/A   Scattered Clouds
6:15 PM 69.8 °F 53.6 °F 56% 30.02 in 10.0 mi NNW 6.9 mph - N/A   Scattered Clouds
6:35 PM 66.2 °F 53.6 °F 64% 30.02 in 10.0 mi North 8.1 mph - N/A   Scattered Clouds
6:55 PM 68.0 °F 51.8 °F 56% 30.02 in 10.0 mi NNE 8.1 mph - N/A   Clear
7:15 PM 66.2 °F 53.6 °F 64% 30.02 in 10.0 mi NNE 5.8 mph - N/A   Clear
7:35 PM 64.4 °F 53.6 °F 68% 30.03 in 10.0 mi NE 6.9 mph - N/A   Scattered Clouds
7:55 PM 64.4 °F 55.4 °F 73% 30.03 in 10.0 mi NE 6.9 mph - N/A   Mostly Cloudy
8:15 PM 62.6 °F 55.4 °F 77% 30.05 in 10.0 mi NE 5.8 mph - N/A   Scattered Clouds
8:35 PM 60.8 °F 55.4 °F 82% 30.05 in 10.0 mi NE 8.1 mph - N/A   Scattered Clouds
8:55 PM 59.0 °F 53.6 °F 82% 30.06 in 10.0 mi NE 5.8 mph - N/A   Clear
9:15 PM 59.0 °F 51.8 °F 77% 30.08 in 10.0 mi NE 6.9 mph - N/A   Clear
9:35 PM 59.0 °F 51.8 °F 77% 30.08 in 10.0 mi NE 4.6 mph - N/A   Scattered Clouds
9:55 PM 57.2 °F 51.8 °F 82% 30.08 in 10.0 mi NE 4.6 mph - N/A   Mostly Cloudy
10:15 PM 55.4 °F 51.8 °F 88% 30.09 in 10.0 mi NE 3.5 mph - N/A   Scattered Clouds
10:35 PM 55.4 °F 51.8 °F 88% 30.09 in 10.0 mi Calm Calm - N/A   Scattered Clouds
10:55 PM 53.6 °F 51.8 °F 94% 30.09 in 10.0 mi Calm Calm - N/A   Scattered Clouds
11:55 PM 51.8 °F 50.0 °F 94% 30.10 in 10.0 mi Calm Calm - N/A   Scattered Clouds